This is the latest recevied weather packets stored in our database for station/object KI7JYE. If no packets are shown the sender has not sent any weather packets the latest 1 day(s).
| Time | Temp. | Humidity | Pressure | Rain* | Wind** | Luminosity | Snow |
|---|---|---|---|---|---|---|---|
| 1778012261 | 16.11° C | 74% | 1015.8 hPa | 0 mm | 0.45 m/s, 232° | 182 W/m² | - |
| 1778011959 | 16.11° C | 75% | 1015.5 hPa | 0 mm | 0.45 m/s, 238° | 180 W/m² | - |
| 1778011658 | 16.11° C | 75% | 1015.6 hPa | 0 mm | 0.45 m/s, 233° | 176 W/m² | - |
| 1778011354 | 15.56° C | 75% | 1015.6 hPa | 0 mm | 0.45 m/s, 232° | 187 W/m² | - |
| 1778011049 | 15.56° C | 78% | 1015.6 hPa | 0 mm | 0 m/s | 209 W/m² | - |
| 1778010747 | 16.11° C | 75% | 1015.7 hPa | 0 mm | 0.89 m/s, 247° | 216 W/m² | - |
| 1778010444 | 15.56° C | 76% | 1015.6 hPa | 0 mm | 0.89 m/s, 234° | 201 W/m² | - |
| 1778010141 | 16.11° C | 75% | 1015.6 hPa | 0 mm | 0 m/s | 177 W/m² | - |
| 1778009837 | 15.56° C | 76% | 1015.7 hPa | 0 mm | 0 m/s | 162 W/m² | - |
| 1778009534 | 15.56° C | 75% | 1015.9 hPa | 0 mm | 0 m/s | 155 W/m² | - |
| 1778009233 | 15.56° C | 75% | 1015.6 hPa | 0 mm | 0.89 m/s, 245° | 161 W/m² | - |
| 1778008930 | 15.56° C | 76% | 1015.7 hPa | 0 mm | 0 m/s | 167 W/m² | - |
| 1778008628 | 15.56° C | 76% | 1015.8 hPa | 0 mm | 0 m/s | 167 W/m² | - |
| 1778008326 | 15.56° C | 77% | 1015.8 hPa | 0 mm | 0.89 m/s, 270° | 176 W/m² | - |
| 1778008022 | 15.56° C | 77% | 1015.7 hPa | 0 mm | 0 m/s | 187 W/m² | - |
| 1778007721 | 15.56° C | 77% | 1015.7 hPa | 0 mm | 0 m/s | 167 W/m² | - |
| 1778007419 | 15.56° C | 78% | 1015.7 hPa | 0 mm | 0 m/s | 147 W/m² | - |
| 1778007115 | 15° C | 77% | 1015.7 hPa | 0 mm | 1.34 m/s, 251° | 143 W/m² | - |
| 1778006811 | 15.56° C | 78% | 1015.7 hPa | 0 mm | 0 m/s | 150 W/m² | - |
| 1778006509 | 15.56° C | 77% | 1015.5 hPa | 0 mm | 0 m/s | 157 W/m² | - |
| 1778006205 | 15° C | 78% | 1015.5 hPa | 0 mm | 0.45 m/s, 235° | 156 W/m² | - |
| 1778005903 | 14.44° C | 80% | 1015.8 hPa | 0 mm | 0 m/s | 150 W/m² | - |
| 1778005599 | 14.44° C | 80% | 1015.6 hPa | 0 mm | 0.45 m/s, 216° | 147 W/m² | - |
| 1778005296 | 14.44° C | 80% | 1015.8 hPa | 0 mm | 0.45 m/s, 208° | 145 W/m² | - |
| 1778004992 | 15° C | 80% | 1015.7 hPa | 0 mm | 0 m/s | 150 W/m² | - |
* Rain latest hour (hover to see other rain measurements)
** Current wind speed in m/s (hover to see current wind gust speed)